< < Back
Terminal Aerodrome Forecast


Current Version              Previous Versions:   1  2  3  4  5  6  7  8  9  

Terminal Aerodrome Forecast

759
FTUS42 KFFC 210500 CCA
TAFMCN
TAF COR
KMCN 210550Z 2106/2206 00000KT 5SM BR FEW120
      TEMPO 2109/2113 4SM BR
     FM211500 30005KT P6SM FEW250
     FM211800 32008G14KT P6SM FEW250
     FM220000 32004KT P6SM SKC=

Latest METAR

297
SAUS80 KWBC 210900 RRA
MTRMCN
METAR KMCN 210853Z AUTO 00000KT 7SM CLR 09/09 A2999 RMK AO2 SLP152
T00940094 56005 TSNO


USA.gov is the U.S. government's official web portal to all federal, state and local government web resources and services.